Theta_e
311 311 311 311 312 312 312 312 313 314 314 314 314 314 313 313 313 315 319 323 328 329 327 326 324 330 336 335 336 337 334 338 338 339 338 341 342 344 343 339 340 340 340 337 337
311 311 311 311 311 312 312 313 314 314 315 315 315 315 314 314 315 318 321 326 325 325 326 324 323 328 328 332 334 335 334 337 336 335 336 341 343 343 341 340 340 340 341 338 336
311 311 311 311 311 312 313 314 314 315 315 316 316 316 315 315 316 320 321 325 324 325 325 325 326 325 329 336 335 334 334 336 337 337 337 341 342 342 341 340 340 339 338 337 336
311 311 311 311 311 312 313 314 315 315 315 316 316 317 316 318 321 321 321 323 324 325 324 324 328 327 333 334 335 337 336 336 337 338 337 340 341 340 341 340 340 338 337 337 334
311 311 311 311 311 312 313 315 315 315 316 316 317 318 318 324 328 328 326 324 326 324 325 324 326 330 333 334 337 337 337 336 337 339 339 341 341 341 339 339 337 336 336 335 334
311 311 311 311 311 312 313 315 315 316 316 316 317 318 320 321 327 328 328 325 325 325 324 326 329 333 334 335 334 334 336 335 334 340 342 341 341 340 337 337 336 335 335 334 335
311 311 312 312 311 312 313 315 316 316 316 316 317 319 320 323 327 325 327 326 325 324 324 325 326 334 334 334 336 335 337 332 334 339 341 341 342 341 339 336 335 335 336 336 336
312 312 312 312 311 312 313 315 316 317 317 317 317 319 320 322 324 325 324 325 324 322 324 325 329 332 334 335 332 332 332 335 332 335 341 340 342 340 339 335 333 332 332 332 333
312 312 312 312 312 312 313 315 316 317 317 317 318 319 320 322 324 325 325 323 324 324 324 330 333 333 333 330 330 330 331 335 337 334 341 339 341 341 338 334 334 333 333 331 330
313 312 312 312 312 312 313 315 317 317 318 318 320 321 321 323 325 327 327 328 327 326 325 325 332 326 326 325 329 327 335 334 337 335 340 339 339 340 338 336 335 334 332 332 333
313 312 312 312 312 313 314 316 318 322 320 322 320 321 321 322 323 324 325 325 327 327 323 325 323 324 322 327 327 325 332 333 333 334 334 337 340 342 339 337 337 335 334 334 333
314 313 312 312 312 313 315 317 322 322 319 321 322 323 324 322 322 323 323 325 325 324 323 321 321 321 323 323 327 331 333 334 333 334 333 338 342 340 340 338 336 335 335 334 333
315 313 312 312 313 314 316 317 321 322 319 322 323 324 324 323 322 323 324 325 325 324 324 323 323 323 324 326 329 331 333 332 333 340 339 340 340 341 340 338 338 337 336 335 335
316 314 312 312 316 317 321 321 322 323 316 319 322 324 324 322 323 322 323 324 324 324 322 322 322 324 322 324 328 331 329 332 338 335 336 335 338 338 337 338 336 336 335 336 336
316 314 313 312 318 322 320 320 324 323 320 321 324 323 321 320 322 324 325 324 323 323 323 324 324 322 327 327 327 329 328 329 331 331 333 338 337 334 333 335 333 333 334 334 334
317 314 313 313 316 316 319 323 324 317 323 322 328 328 322 323 323 324 325 325 325 324 322 323 322 321 322 326 328 330 330 324 318 320 323 328 336 333 333 334 331 330 330 333 335
317 313 313 314 317 321 321 325 317 319 320 327 329 328 327 328 325 323 323 323 323 325 324 322 323 323 329 331 328 327 326 331 331 329 329 331 332 334 329 329 330 327 328 331 330
317 313 313 314 320 318 324 320 323 322 327 327 330 330 331 330 328 328 322 329 327 321 321 323 325 330 330 330 330 328 328 332 335 330 328 332 337 333 328 329 330 329 329 329 328
318 315 314 314 318 322 324 320 320 323 330 332 329 332 331 332 332 330 330 327 328 322 324 327 330 329 330 330 330 329 327 325 322 320 321 325 329 328 329 330 327 325 326 325 326
319 316 315 314 318 323 318 319 322 325 331 330 331 332 333 331 331 332 332 331 331 331 327 329 330 330 330 328 326 329 323 327 323 329 328 326 334 332 330 330 328 324 323 325 325
320 322 319 314 321 323 318 318 322 327 331 331 331 332 333 333 332 333 332 331 332 332 328 328 328 328 328 327 326 323 323 320 319 322 325 327 327 325 326 327 328 325 325 324 323
321 320 317 319 319 316 317 320 324 329 331 332 331 332 331 332 333 331 333 331 331 332 332 328 326 331 330 324 322 324 323 321 323 325 321 320 322 322 322 321 324 325 325 323 323
321 327 318 320 316 317 319 321 323 327 329 333 335 332 333 332 331 331 333 332 332 330 327 325 324 327 326 321 321 326 326 319 317 317 322 323 325 322 321 321 322 324 322 322 318
325 332 323 321 320 318 320 321 323 330 331 331 332 331 331 331 329 330 333 333 332 328 328 327 325 326 326 323 321 329 328 322 319 320 320 322 322 323 323 321 319 320 321 320 319
336 332 334 330 327 325 321 322 327 330 331 331 331 331 331 332 333 332 332 333 331 328 328 323 326 327 326 326 329 327 326 322 322 320 322 321 325 324 323 321 320 320 319 317 314
338 336 334 330 330 329 328 331 332 330 331 331 330 332 331 331 331 333 331 331 331 328 328 324 326 329 330 328 329 329 328 322 324 326 326 327 326 320 319 321 322 322 318 313 314
337 338 337 328 327 328 330 333 333 332 331 331 330 332 331 330 331 331 329 329 329 329 327 327 327 327 331 328 329 328 328 327 324 326 325 324 320 314 312 312 313 313 313 315 315
Wind_Speed
17 15 12 10 6 5 4 4 5 4 4 3 2 1 4 7 10 12 13 11 8 9 9 10 11 9 10 3 2 3 4 2 3 4 2 10 5 5 2 10 5 6 2 5 23
17 15 13 10 6 4 3 4 4 4 4 3 3 1 3 6 10 14 14 15 9 8 10 13 14 12 4 3 3 3 3 7 5 4 4 12 7 10 5 8 4 5 7 8 24
16 15 13 10 6 3 3 3 3 4 4 4 3 2 4 7 7 8 15 14 8 8 10 9 8 10 3 3 3 2 4 4 6 9 12 14 8 8 9 3 9 9 12 23 26
16 14 13 10 6 2 2 3 3 3 4 3 4 2 5 10 5 7 12 13 8 9 10 13 11 4 2 3 3 2 6 6 4 1 18 13 13 6 7 4 8 11 14 27 25
16 14 12 10 5 1 2 2 2 3 3 3 3 2 6 3 4 4 10 13 10 11 15 13 10 6 5 4 3 2 3 7 7 3 10 17 7 6 2 4 10 16 22 24 22
16 13 11 9 5 1 1 2 1 2 2 3 3 2 3 2 2 2 7 16 13 13 12 13 2 5 5 3 4 4 1 2 4 6 5 8 6 4 7 14 17 21 23 22 20
16 13 11 9 5 1 2 2 1 1 2 2 1 1 4 3 1 4 7 9 12 11 5 9 10 5 6 4 1 2 2 5 2 6 3 10 2 5 13 17 21 22 20 22 23
16 13 11 9 4 1 3 3 1 1 2 2 1 2 3 5 3 1 6 9 9 10 6 8 3 9 3 6 4 4 4 2 2 11 5 7 7 4 21 24 24 23 21 22 23
16 13 11 8 4 1 3 3 1 1 2 1 1 1 2 5 5 4 7 6 6 5 8 2 11 4 5 4 3 4 3 4 7 10 5 5 6 9 25 26 24 25 25 23 20
16 14 11 8 3 2 3 3 2 3 3 1 3 1 5 5 6 4 3 6 5 3 5 7 3 4 3 3 5 6 5 5 6 7 7 8 9 8 21 21 22 25 24 22 20
17 14 11 7 2 2 3 3 2 1 5 5 2 4 1 4 6 6 5 3 5 4 3 3 4 5 12 12 6 5 6 8 3 5 4 9 6 11 19 16 16 21 22 23 20
18 14 11 6 2 3 4 3 6 2 6 9 14 15 13 10 4 8 10 2 5 5 5 4 4 11 4 5 5 5 3 6 3 2 2 3 3 7 15 19 17 19 22 24 21
18 14 10 6 3 2 5 5 5 8 1 6 5 10 12 15 9 12 6 4 5 3 4 5 10 4 3 3 3 4 5 5 4 4 2 5 4 6 7 15 17 20 22 24 22
18 14 9 5 2 4 8 4 8 4 5 6 3 3 11 8 5 20 16 7 1 8 4 5 5 3 3 5 7 5 7 4 6 4 4 2 4 5 6 9 17 19 20 25 24
18 13 7 1 3 5 0 9 2 4 4 6 2 3 12 7 7 7 16 12 9 7 4 12 4 3 4 6 7 9 4 5 4 4 3 1 2 5 1 6 10 18 25 23 24
19 12 6 2 4 2 3 1 4 6 1 6 4 3 4 1 3 3 4 11 1 5 2 10 2 4 8 4 5 3 3 6 4 4 1 4 5 6 4 6 4 13 15 13 13
18 10 6 4 5 3 2 9 5 4 3 5 3 4 4 2 3 3 3 2 4 2 4 5 6 4 3 0 3 7 5 3 3 2 5 4 3 8 5 7 6 11 14 14 15
14 8 4 7 8 1 4 5 2 3 3 4 5 3 4 5 2 4 3 4 1 4 2 3 8 1 0 4 5 6 7 5 6 4 5 3 5 5 5 8 9 13 15 16 16
12 7 2 8 9 2 3 4 6 4 3 3 1 5 4 2 1 3 1 6 5 5 6 6 6 3 3 2 6 3 3 4 4 2 2 2 6 6 1 2 4 12 15 16 17
11 3 3 12 12 4 5 4 3 4 2 1 2 1 2 6 5 3 2 1 2 3 7 2 3 1 4 2 3 2 4 2 3 2 4 3 4 5 5 8 7 9 17 18 17
4 2 4 17 13 3 4 6 5 6 4 2 3 2 2 1 1 4 3 1 3 4 4 2 3 5 2 1 2 3 2 6 4 3 2 2 6 6 8 10 10 16 20 21 17
2 2 10 15 4 2 3 5 3 4 5 1 3 2 3 2 1 4 2 4 1 1 3 1 4 2 4 4 3 1 1 3 4 4 1 3 6 2 6 10 15 18 18 18 15
3 3 10 2 3 1 3 3 4 3 4 4 4 1 4 5 0 4 3 2 1 3 4 5 1 3 7 6 5 3 2 4 4 3 5 3 6 2 6 6 7 14 17 16 12
2 2 3 3 3 4 2 3 3 1 3 2 3 5 3 2 4 4 5 4 2 2 4 3 3 5 5 6 2 5 7 2 4 3 1 4 7 6 6 5 1 8 11 9 8
4 1 2 1 2 2 1 2 3 4 1 3 2 3 5 3 2 4 3 4 2 2 2 4 3 1 4 5 2 2 5 3 2 1 2 6 3 6 6 7 7 7 4 4 5
3 1 3 4 1 2 1 2 2 3 2 2 3 5 1 6 6 1 4 1 2 3 2 3 1 1 3 3 3 3 6 4 4 1 3 4 5 3 9 5 5 2 5 8 9
4 1 0 3 2 0 2 2 3 1 4 3 6 4 3 4 6 6 5 8 4 1 2 3 3 3 4 5 2 3 3 3 2 3 2 3 4 9 8 12 8 7 10 13 8
Wind_Direction
2 6 9 10 15 25 46 63 73 71 72 86 98 162 185 172 166 169 168 149 164 177 167 176 165 160 185 195 219 111 68 142 186 167 198 159 131 158 135 154 168 188 236 182 166
358 1 5 9 13 30 60 69 74 76 75 67 77 116 175 166 172 176 163 162 143 143 173 185 176 177 203 141 143 94 104 203 196 183 197 179 153 157 161 167 210 231 225 186 174
356 357 1 7 9 32 74 79 74 70 62 63 62 98 155 153 164 170 181 178 170 166 164 167 180 172 205 162 147 153 162 203 239 225 186 162 139 178 157 248 223 208 175 175 178
354 353 357 3 7 30 95 97 84 74 66 57 57 99 149 143 148 159 187 187 193 185 179 189 180 171 152 162 161 136 185 196 246 213 166 156 149 144 179 277 262 197 178 176 183
351 352 354 359 2 30 128 118 91 74 63 47 49 98 150 169 115 152 194 194 191 189 191 195 172 159 160 174 147 255 181 202 281 216 136 139 134 156 165 168 174 176 175 180 190
350 350 352 355 357 3 159 138 109 74 43 29 40 118 167 141 63 323 187 204 216 219 203 209 239 185 143 166 145 329 298 45 8 94 127 130 155 179 184 168 172 176 180 192 202
351 349 351 352 355 318 182 165 160 59 5 356 14 172 210 134 100 56 156 192 210 215 217 229 238 215 148 120 123 87 21 337 207 142 138 136 274 224 183 183 176 183 189 200 207
351 349 349 352 347 279 204 176 188 4 334 309 260 217 216 196 221 172 177 199 211 226 242 303 188 174 106 128 38 82 64 355 251 163 186 161 259 203 187 184 185 186 196 201 203
351 350 347 350 340 267 213 186 183 305 322 300 235 214 225 200 235 240 199 182 213 247 259 101 157 108 108 88 23 5 230 205 319 183 140 171 260 191 192 191 193 194 203 204 207
350 350 346 347 338 262 209 192 229 259 239 243 231 247 232 212 210 214 190 216 210 257 97 171 132 76 36 93 236 207 223 225 214 200 180 197 250 171 196 200 210 206 209 210 218
349 348 345 345 330 248 192 209 273 243 227 238 213 244 284 217 218 241 261 282 260 268 148 186 98 216 223 201 235 205 205 220 197 190 138 212 229 190 202 212 224 225 221 218 222
347 347 345 338 298 210 191 121 92 20 308 280 255 256 257 261 296 226 251 232 166 214 126 36 248 243 217 219 192 202 221 242 214 63 162 108 298 219 211 222 224 230 233 232 231
345 345 343 330 293 199 148 140 314 303 228 294 264 240 221 217 229 246 207 205 179 197 213 166 246 82 311 307 209 230 200 235 219 113 119 136 279 211 215 219 232 244 247 245 242
340 341 340 342 98 139 143 358 318 192 62 287 290 274 191 164 237 247 258 226 186 223 178 232 309 224 283 251 160 253 210 219 133 118 238 13 267 243 209 207 222 232 240 244 245
334 334 330 271 130 138 93 341 92 147 55 307 327 177 161 186 209 247 240 218 212 197 116 258 271 258 251 241 165 233 206 207 142 131 92 241 87 262 37 248 229 225 236 243 247
328 326 315 225 203 196 337 110 137 40 37 330 359 359 129 320 275 265 186 213 209 146 213 250 191 204 224 263 176 90 70 46 61 101 199 204 155 280 206 222 214 223 228 231 221
326 319 291 197 168 158 1 151 43 111 330 335 332 34 345 301 308 193 193 94 160 114 284 325 279 254 195 102 51 69 58 315 327 345 239 165 129 246 252 246 240 199 203 194 189
326 311 263 185 178 249 140 59 101 238 267 300 353 358 61 355 313 352 101 148 196 119 142 203 319 286 209 189 204 187 160 168 236 233 273 181 235 259 239 277 247 213 203 192 192
328 313 254 177 180 163 146 69 205 209 259 351 8 59 333 326 311 334 23 199 204 177 168 181 262 263 197 209 150 193 188 172 129 35 68 252 294 298 279 294 211 197 198 202 203
332 317 179 165 159 147 79 206 219 220 274 68 98 222 335 336 318 20 162 306 324 118 125 304 318 277 309 51 11 179 158 14 11 288 289 305 284 248 249 239 217 206 210 209 203
358 116 170 156 151 130 141 222 238 237 208 193 190 143 252 320 329 272 224 54 344 338 99 108 108 295 353 328 242 5 8 55 115 133 199 292 264 218 224 218 209 215 214 211 203
39 60 159 151 79 58 151 198 215 219 213 174 113 126 150 238 291 282 269 174 144 245 128 103 142 249 254 325 305 8 360 141 120 261 127 159 272 322 286 280 249 218 214 202 209
48 85 160 59 117 300 280 272 234 204 214 177 163 172 204 181 50 209 280 290 247 159 169 186 83 15 351 354 360 28 320 110 109 85 203 149 270 336 321 311 257 209 186 193 207
21 71 120 225 93 148 208 245 263 161 149 144 138 162 142 100 210 312 332 345 10 66 101 127 97 141 197 228 205 306 307 172 141 132 200 237 308 326 302 287 232 179 180 185 197
22 73 137 195 6 64 228 319 223 209 154 163 63 142 155 118 305 197 244 276 223 205 61 97 130 164 248 250 230 21 316 74 95 108 104 290 287 309 313 248 199 181 171 185 200
35 70 81 90 37 297 12 177 280 309 182 237 176 206 183 154 186 292 41 243 259 23 68 353 151 117 332 27 312 88 13 47 51 48 292 308 298 8 347 73 129 147 167 143 124
11 29 217 32 29 24 254 189 210 211 266 231 184 149 206 230 250 54 301 264 268 167 100 70 94 56 275 335 34 30 338 344 311 35 322 346 321 341 24 43 55 117 145 145 155